Regional Weather Roundup
Issued by NWS

Home | Current Version | Previous Version | Text Only | Print | Product List | Glossary On
Versions: 1 2 3 4 5 6 7 8 9 10 11 12 13 14 15 16 17 18 19 20 21 22 23 24 25 26 27 28 29 30 31 32 33 34 35 36 37 38 39 40 41 42 43 44 45 46 47 48 49 50
118
ASUS43 KMKX 291911
RWRWI

WISCONSIN REGIONAL WEATHER ROUNDUP
NATIONAL WEATHER SERVICE MILWAUKEE/SULLIVAN WI
200 PM CDT THU SEP 29 2016

NOTE: "FAIR" INDICATES FEW OR NO CLOUDS BELOW 12,000 FEET WITH NO
SIGNIFICANT WEATHER AND/OR OBSTRUCTIONS TO VISIBILITY.

WIZ001-002-006>008-014>016-023>028-292000-
NORTHWEST WISCONSIN

CITY           SKY/WX    TMP DP  RH WIND       PRES   REMARKS
SUPERIOR ARPT  CLOUDY    58  51  77 NE8       30.51F
ASHLAND        PTSUNNY   59  53  80 NE12G21   30.50F
HAYWARD        PTSUNNY   63  50  62 NE6       30.47F
SIREN          PTSUNNY   63  50  61 N9        30.47F
CUMBERLAND     SUNNY     63  46  55 NE9       30.45F
RICE LAKE      SUNNY     67  48  50 N7        30.45F
CHETEK         NOT AVBL
LADYSMITH      SUNNY     68  52  56 N5        30.45F
EAU CLAIRE     SUNNY     66  51  58 NE8       30.42F
MENOMONIE      SUNNY     71  49  45 NE3       30.43F
NEW RICHMOND   MOSUNNY   65  50  56 CALM      30.45F
OSCEOLA        MOSUNNY   64  50  59 NE5       30.48F
$$

WIZ003>005-009-010-017-018-292000-
NORTH CENTRAL WISCONSIN

CITY           SKY/WX    TMP DP  RH WIND       PRES   REMARKS
MANITOWISH WTR NOT AVBL
ARBOR VITAE    SUNNY     63  53  68 NE6       30.45F
WOODRUFF       SUNNY     63  53  68 NE6       30.45F
RHINELANDER    SUNNY     66  53  63 NE6       30.44F
EAGLE RIVER    SUNNY     64  50  61 N8        30.44F
LAND O LAKES   SUNNY     62  52  70 NE10      30.48F
PHILLIPS       SUNNY     64  53  66 E8        30.44F
TOMAHAWK       SUNNY     66  51  58 N6        30.43F
MEDFORD        SUNNY     67  51  57 NE9       30.41F
MERRILL        SUNNY     69  52  55 NE8       30.41F
$$

WIZ029-030-035-036-043>047-292000-
CENTRAL WISCONSIN

CITY           SKY/WX    TMP DP  RH WIND       PRES   REMARKS
WAUSAU         SUNNY     69  49  48 NE12G20   30.38F
MOSINEE        MOSUNNY   70  52  52 NE8G17    30.40F
MARSHFIELD     SUNNY     70  51  51 NE10      30.39F
STEVENS POINT  SUNNY     70  49  47 N16       30.37F
WAUPACA        MOSUNNY   73  51  44 N10G21    30.35F
WAUTOMA        SUNNY     72  50  45 E15G24    30.34F
WISC RAPIDS    SUNNY     73  53  49 NE12      30.38F
CAMP DOUGLAS   MOSUNNY   70  54  56 NE8G16    30.35F
$$

WIZ011>013-019>022-031-037>040-048>050-292000-
NORTHEAST WISCONSIN

CITY           SKY/WX    TMP DP  RH WIND       PRES   REMARKS
ANTIGO         SUNNY     68  52  56 NE10G17   30.41F
SHAWANO        PTSUNNY   71  53  53 NE12      30.37F
OCONTO         NOT AVBL
STURGEON BAY   MOSUNNY   70  54  56 NE17      30.36F
GREEN BAY      SUNNY     69  57  65 NE18G29   30.35F
MANITOWOC      PTSUNNY   66  58  75 MISG      30.33S
APPLETON       MOSUNNY   70  48  46 NE17G29   30.33F
CLINTONVILLE   MOSUNNY   70  50  49 NE14G22   30.36F
OSHKOSH        SUNNY     69  56  62 NE18G26   30.32F
$$

WIZ032>034-041-042-053>061-292000-
SOUTHWEST WISCONSIN

CITY           SKY/WX    TMP DP  RH WIND       PRES   REMARKS
LA CROSSE      SUNNY     71  54  54 NW10      30.37F
SPARTA         SUNNY     70  53  55 N10       30.37F
VIROQUA        SUNNY     69  51  52 N12G17    30.36F
BOSCOBEL       SUNNY     75  49  39 NE10G18   30.32F
PRAIRIE DU CHI SUNNY     71  50  48 N9        30.32F
PLATTEVILLE    SUNNY     72  51  47 NE17G23   30.30F
$$

WIZ056-057-062-063-064-067-068-292000-
SOUTH CENTRAL WISCONSIN

CITY           SKY/WX    TMP DP  RH WIND       PRES   REMARKS
REEDSBURG      NOT AVBL
BARABOO/DELLS  SUNNY     72  45  38 NE13G21   30.32F
LONE ROCK      SUNNY     74  49  41 NE14G28   30.31F
MINERAL POINT  SUNNY     72  46  40 N16G23    30.30F
MADISON        MOSUNNY   71  55  56 NE21G29   30.29F
MIDDLETON      MOSUNNY   72  52  49 NE18G25   30.30S
WATERTOWN      SUNNY     70  55  58 NE15G26   30.27S
MONROE         MOSUNNY   70  54  56 NE21G30   30.26F
JANESVILLE     PTSUNNY   72  52  49 NE20      30.23F
$$

WIZ051-052-058>065-066-070>072-292000-
SOUTHEAST WISCONSIN

CITY           SKY/WX    TMP DP  RH WIND       PRES   REMARKS
MILWAUKEE      CLOUDY    63  57  81 N20G28    30.26F
WAUKESHA       CLOUDY    63  54  72 NE18G24   30.29S
MILWAUKEE/TIMM PTSUNNY   64  52  63 N21G35    30.28S
RACINE         CLOUDY    62  56  80 N16G25    30.26S
BURLINGTON     CLOUDY    62  53  72 N15G21    30.25F
KENOSHA        CLOUDY    62  56  80 N18G29    30.24F
FOND DU LAC    SUNNY     70  57  63 N18G28    30.32F
SHEBOYGAN      PTSUNNY   66  59  78 NE26G32   30.31S
WEST BEND      MOSUNNY   72  63  73 NE23G33   30.29F
JUNEAU         MOSUNNY   70  54  56 NE15G23   30.29F
$$

LSZ147-162-292000-
LAKE SUPERIOR

STATION/POSITION TIME  TEMP    WIND        PRES    WAVE
                       AIR SEA DIR/SP/G            HT/PER
                 (UTC) (F)     (DEG/KT/KT) (MB)    (FT/S)
W MID LAKE BUOY  1850   56 55   50/  6/  8 1033.2F   2/ 5
DEVILS ISLAND    1800   53      40/  9/ 10 1034.1R
SAXON HARBOR     1840   58      40/ 11/ 12 1032.2F
$$

LMZ867-665-643>646-292000-
LAKE MICHIGAN

STATION/POSITION TIME  TEMP    WIND        PRES    WAVE
                       AIR SEA DIR/SP/G            HT/PER
                 (UTC) (F)     (DEG/KT/KT) (MB)    (FT/S)
CHAMBERS ISLAND  1800   63      20/ 14/ 16 1028.4F
S GREEN BAY BUOY 1830   63 63   40/ 19/ 23 1027.4F
N MID LAKE BUOY  1850   62 66   50/ 19/ 21 1027.9F   3/ 5
NORTHPORT PIER   1800   66      30/ 11/ 16 1028.8F
SISTER BAY       1823   73      10/ 13/ 28   N/A
KEWAUNEE LAKESHO 1800   63      10/ 12/ 19 1027.0F
SHEBOYGAN LAKESH 1900   61      20/ 20/ 22 1026.2F
PORT WASHINGTON  1817   66      40/ 19/ 26 1026.4S
ATWATER BUOY     1800   56 53  360/ 12/ 16 1024.9F
MILWAUKEE LAKESH 1810   61      10/ 18/ 21   N/A
S MID LAKE BUOY  1850   65 69   60/ 23/ 27 1022.3R   7/ 7
KENOSHA   LAKESH 1900   60     360/ 21/ 25 1023.4S
$$

TC  - TEMPERATURE IN CELSIUS
VSB - VISIBILITY IN STATUTE MILES
WCI - WIND CHILL INDEX
HX  - HEAT INDEX





USA.gov is the U.S. government's official web portal to all federal, state and local government web resources and services.